DW8546 Weather Reports


Display with metric or nautical units.
time (UTC)temp
F
wind
direction
speed
MPH
gust
MPH
rain 1hr
in
rain 24hr
in
rain mn
in
humidity
%
barometer
mb
20260502214511 64 181 4.0 11.0 0.00 0.00 0.00 19 1014.9
20260502213010 64 127 6.0 14.0 0.00 0.00 0.00 19 1015.1
20260502211509 65 35 2.0 16.0 0.00 0.00 0.00 20 1015.3
20260502210008 64 29 5.0 13.0 0.00 0.00 0.00 19 1015.3
20260502204505 63 310 5.0 13.0 0.00 0.00 0.00 18 1015.5
20260502203002 63 205 5.0 13.0 0.00 0.00 0.00 17 1015.7
20260502201502 63 68 7.0 13.0 0.00 0.00 0.00 16 1015.8
20260502200100 63 18 6.0 13.0 0.00 0.00 0.00 19 1015.9
20260502200002 63 20 6.0 13.0 0.00 0.00 0.00 19 1015.9
20260502194619 62 175 7.0 14.0 0.00 0.00 0.00 19 1016.2
20260502193107 62 349 8.0 16.0 0.00 0.00 0.00 21 1016.4
20260502191601 62 60 8.0 15.0 0.00 0.00 0.00 18 1016.6
20260502190053 62 209 1.0 8.0 0.00 0.00 0.00 19 1016.6
20260502184559 61 227 9.0 17.0 0.00 0.00 0.00 18 1016.7
20260502183050 61 58 7.0 17.0 0.00 0.00 0.00 20 1016.9
20260502181550 61 18 11.0 20.0 0.00 0.00 0.00 22 1017.1
20260502163040 57 169 0.0 4.0 0.00 0.00 0.00 34 1018.3
20260502161536 55 357 0.0 3.0 0.00 0.00 0.00 34 1018.5
20260502151509 46 131 1.0 3.0 0.00 0.00 0.00 47 1019.3
20260502130114 34 162 2.0 5.0 0.00 0.00 0.00 64 1019.8
20260502123121 34 162 1.0 7.0 0.00 0.00 0.00 64 1019.7
20260502121550 35 207 1.0 6.0 0.00 0.00 0.00 63 1019.8
20260502114554 35 162 2.0 8.0 0.00 0.00 0.00 63 1019.7
20260502113047 34 135 2.0 8.0 0.00 0.00 0.00 65 1019.6
20260502111545 35 314 2.0 5.0 0.00 0.00 0.00 64 1019.7
20260502110048 34 269 0.0 3.0 0.00 0.00 0.00 65 1019.8
20260502104541 35 190 0.0 4.0 0.00 0.00 0.00 64 1019.8
20260502103038 35 221 0.0 1.0 0.00 0.00 0.00 64 1019.8
20260502101534 36 44 1.0 4.0 0.00 0.00 0.00 62 1019.9
20260502091525 38 190 1.0 6.0 0.00 0.00 0.00 59 1019.7
20260502071510 40 191 1.0 3.0 0.00 0.00 0.00 56 1020.2
20260502070007 40 190 0.0 4.0 0.00 0.00 0.00 55 1020.2
20260502064505 40 117 0.0 2.0 0.00 0.00 0.00 57 1020.1
20260502063002 40 224 0.0 3.0 0.00 0.00 0.00 56 1020.1
20260502061600 41 190 0.0 0.0 0.00 0.00 0.00 54 1019.9
20260502060114 41 198 0.0 2.0 0.00 0.00 0.00 53 1019.9
20260502054556 42 162 0.0 0.0 0.00 0.00 0.00 52 1019.8
20260502053055 43 134 0.0 0.0 0.00 0.00 0.00 51 1019.7
20260502051552 43 135 0.0 0.0 0.00 0.00 0.00 49 1019.6
20260502050051 44 253 0.0 0.0 0.00 0.00 0.00 48 1019.6
20260502044551 45 153 0.0 4.0 0.00 0.00 0.00 46 1019.4
20260502043057 45 44 0.0 0.0 0.00 0.00 0.00 46 1019.3
20260502041553 46 239 0.0 0.0 0.00 0.00 0.00 43 1019.1
20260502040051 47 238 0.0 0.0 0.00 0.00 0.00 42 1018.8
20260502034549 49 224 0.0 2.0 0.00 0.00 0.00 41 1018.6
20260502033049 49 251 0.0 0.0 0.00 0.00 0.00 42 1018.3
20260502031547 50 326 0.0 0.0 0.00 0.00 0.00 37 1018.0
20260502030047 51 241 0.0 0.0 0.00 0.00 0.00 35 1017.6
20260502024606 54 251 0.0 0.0 0.00 0.00 0.00 32 1017.4
20260502023046 55 229 0.0 2.0 0.00 0.00 0.00 31 1017.3
20260502021545 56 355 0.0 1.0 0.00 0.00 0.00 30 1017.1
20260502020045 57 39 1.0 5.0 0.00 0.00 0.00 27 1017.0
20260502014544 59 271 0.0 3.0 0.00 0.00 0.00 27 1016.9
20260502013043 60 173 2.0 7.0 0.00 0.00 0.00 25 1016.8
20260502011542 61 222 1.0 8.0 0.00 0.00 0.00 24 1016.8
20260502010050 61 2 3.0 8.0 0.00 0.00 0.00 24 1016.8
20260502004554 62 5 1.0 12.0 0.00 0.00 0.00 23 1017.0
20260502003039 64 142 1.0 5.0 0.00 0.00 0.00 22 1017.0
20260502001538 65 37 0.0 5.0 0.00 0.00 0.00 22 1017.2
20260502000035 63 37 0.0 10.0 0.00 0.00 0.00 23 1017.2
20260501234535 63 6 5.0 12.0 0.00 0.00 0.00 22 1017.4
20260501233034 63 238 7.0 13.0 0.00 0.00 0.00 22 1017.4
20260501231532 64 359 2.0 9.0 0.00 0.00 0.00 22 1017.6
20260501230035 64 210 8.0 14.0 0.00 0.00 0.00 21 1017.8
20260501224529 63 103 8.0 19.0 0.00 0.00 0.00 21 1018.1
20260501223027 63 178 7.0 16.0 0.00 0.00 0.00 20 1018.3
20260501221526 63 52 6.0 14.0 0.00 0.00 0.00 21 1018.3
20260501220025 63 30 5.0 12.0 0.00 0.00 0.00 21 1018.6